Location: Dos Palmas
(32.4468°N, 116.8732°W)
Time: 00:22:39
(UTC+00:00)

Meteor 2-10 - Pass Details

Date: 20 June 2021
Orbit: 738 x 868 km, 81.2° (Epoch: 27 July)

Event Time Altitude Azimuth Distance (km) Brightness Sun altitude
Rises 03:44:32 0° 355° (N) 3,190 7.9 -9.2°
Reaches altitude 10° 03:46:52 10° 358° (N) 2,273 7.0 -9.6°
Maximum altitude 03:51:57 67° 81° (E) 826 4.0 -10.5°
Drops below altitude 10° 03:57:08 10° 164° (SSE) 2,327 6.0 -11.4°
Enters shadow 03:57:31 - 165° (SSE) 2,474 6.2 -11.4°
